Time,TemperatureF,DewpointF,PressureIn,WindDirection,WindDirectionDegrees,WindSpeedMPH,WindSpeedGustMPH,Humidity,HourlyPrecipIn,Conditions,Clouds,dailyrainin,SoftwareType,DateUTC
2013-02-24 00:01:00,33.0,31.0,29.84,NNE,16,6.0,10.0,93,0.00,,,0.01,,2013-02-24 05:01:00,
2013-02-24 00:11:00,33.0,31.0,29.84,NNE,16,6.0,10.0,93,0.00,,,0.01,,2013-02-24 05:11:00,
2013-02-24 00:22:00,33.0,31.0,29.84,North,355,5.0,12.0,93,0.00,,,0.01,,2013-02-24 05:22:00,
2013-02-24 00:32:00,33.0,31.0,29.83,NNE,15,1.0,8.0,93,0.00,,,0.01,,2013-02-24 05:32:00,
2013-02-24 00:42:00,33.0,31.0,29.83,NNE,15,1.0,8.0,93,0.00,,,0.01,,2013-02-24 05:42:00,
2013-02-24 00:52:00,33.0,31.0,29.82,NNE,14,2.0,9.0,93,0.00,,,0.01,,2013-02-24 05:52:00,
2013-02-24 01:02:00,33.0,31.0,29.81,NNW,340,2.0,7.0,93,0.00,,,0.01,,2013-02-24 06:02:00,
2013-02-24 01:11:00,33.0,31.0,29.81,NNW,340,2.0,7.0,93,0.00,,,0.01,,2013-02-24 06:11:00,
2013-02-24 01:21:00,33.0,31.0,29.81,NNE,22,4.0,8.0,93,0.00,,,0.01,,2013-02-24 06:21:00,
2013-02-24 01:32:00,33.0,31.0,29.80,NNE,12,2.0,7.0,93,0.00,,,0.01,,2013-02-24 06:32:00,
2013-02-24 01:42:00,33.0,31.0,29.80,NNE,12,2.0,7.0,93,0.00,,,0.01,,2013-02-24 06:42:00,
2013-02-24 01:52:00,34.0,32.0,29.80,NNE,32,3.0,9.0,93,0.00,,,0.01,,2013-02-24 06:52:00,
2013-02-24 02:01:00,34.0,32.0,29.80,NNE,17,3.0,8.0,93,0.00,,,0.01,,2013-02-24 07:01:00,
2013-02-24 02:12:00,34.0,32.0,29.80,NNE,17,3.0,8.0,93,0.00,,,0.01,,2013-02-24 07:12:00,
2013-02-24 02:21:00,34.0,32.0,29.78,NNW,344,5.0,12.0,93,0.00,,,0.01,,2013-02-24 07:21:00,
2013-02-24 02:32:00,34.0,32.0,29.77,NNE,15,3.0,12.0,93,0.00,,,0.01,,2013-02-24 07:32:00,
2013-02-24 02:42:00,34.0,32.0,29.77,NNE,15,3.0,12.0,93,0.00,,,0.01,,2013-02-24 07:42:00,
2013-02-24 02:51:00,35.0,33.0,29.75,NE,44,5.0,13.0,93,0.00,,,0.01,,2013-02-24 07:51:00,
2013-02-24 03:01:00,35.0,33.0,29.74,North,360,5.0,14.0,94,0.00,,,0.01,,2013-02-24 08:01:00,
2013-02-24 03:11:00,35.0,33.0,29.74,North,360,5.0,14.0,94,0.00,,,0.01,,2013-02-24 08:11:00,
2013-02-24 03:22:00,35.0,33.0,29.73,NE,52,6.0,14.0,94,0.00,,,0.01,,2013-02-24 08:22:00,
2013-02-24 03:32:00,36.0,34.0,29.72,NNE,19,7.0,15.0,94,0.00,,,0.01,,2013-02-24 08:32:00,
2013-02-24 03:42:00,36.0,34.0,29.72,NNE,19,7.0,15.0,94,0.00,,,0.01,,2013-02-24 08:42:00,
2013-02-24 03:53:00,35.0,33.0,29.72,NNE,16,4.0,13.0,94,0.00,,,0.01,,2013-02-24 08:53:00,
2013-02-24 04:01:00,36.0,34.0,29.71,North,9,8.0,16.0,94,0.00,,,0.01,,2013-02-24 09:01:00,
2013-02-24 04:11:00,36.0,34.0,29.71,North,9,8.0,16.0,94,0.00,,,0.01,,2013-02-24 09:11:00,
2013-02-24 04:21:00,36.0,34.0,29.71,North,5,7.0,15.0,94,0.00,,,0.01,,2013-02-24 09:21:00,
2013-02-24 04:32:00,36.0,34.0,29.70,NE,36,5.0,13.0,94,0.00,,,0.01,,2013-02-24 09:32:00,
2013-02-24 04:42:00,36.0,34.0,29.70,NE,36,5.0,13.0,94,0.00,,,0.01,,2013-02-24 09:42:00,
2013-02-24 04:51:00,36.0,34.0,29.70,NNW,342,4.0,16.0,94,0.00,,,0.01,,2013-02-24 09:51:00,
2013-02-24 05:01:00,36.0,34.0,29.69,North,10,5.0,14.0,94,0.00,,,0.01,,2013-02-24 10:01:00,
2013-02-24 05:11:00,36.0,34.0,29.68,NW,317,4.0,17.0,94,0.00,,,0.01,,2013-02-24 10:11:00,
2013-02-24 05:21:00,36.0,34.0,29.68,NW,317,4.0,17.0,94,0.00,,,0.01,,2013-02-24 10:21:00,
2013-02-24 05:32:00,37.0,35.0,29.68,NNE,24,10.0,16.0,94,0.00,,,0.01,,2013-02-24 10:32:00,
2013-02-24 05:41:00,37.0,35.0,29.68,NNE,24,10.0,16.0,94,0.00,,,0.01,,2013-02-24 10:41:00,
2013-02-24 05:51:00,37.0,35.0,29.68,NE,46,9.0,17.0,94,0.00,,,0.01,,2013-02-24 10:51:00,
2013-02-24 06:01:00,37.0,35.0,29.70,NNW,348,5.0,15.0,94,0.00,,,0.01,,2013-02-24 11:01:00,
2013-02-24 06:11:00,37.0,35.0,29.70,NNW,348,5.0,15.0,94,0.00,,,0.01,,2013-02-24 11:11:00,
2013-02-24 06:22:00,37.0,35.0,29.70,North,5,3.0,14.0,94,0.00,,,0.01,,2013-02-24 11:22:00,
2013-02-24 06:32:00,37.0,35.0,29.70,NE,44,6.0,12.0,94,0.00,,,0.01,,2013-02-24 11:32:00,
2013-02-24 06:42:00,37.0,35.0,29.70,NE,44,6.0,12.0,94,0.00,,,0.01,,2013-02-24 11:42:00,
2013-02-24 06:52:00,36.0,34.0,29.69,NNE,15,3.0,12.0,94,0.00,,,0.01,,2013-02-24 11:52:00,
2013-02-24 07:02:00,36.0,34.0,29.70,NNE,24,6.0,13.0,94,0.00,,,0.01,,2013-02-24 12:02:00,
2013-02-24 07:11:00,36.0,34.0,29.70,NNE,24,6.0,13.0,94,0.00,,,0.01,,2013-02-24 12:11:00,
2013-02-24 07:22:00,37.0,35.0,29.70,North,5,8.0,16.0,94,0.00,,,0.01,,2013-02-24 12:22:00,
2013-02-24 07:32:00,37.0,35.0,29.70,North,5,5.0,17.0,94,0.00,,,0.01,,2013-02-24 12:32:00,
2013-02-24 07:46:00,37.0,35.0,29.70,North,5,5.0,17.0,94,0.00,,,0.01,,2013-02-24 12:46:00,
2013-02-24 07:55:00,37.0,35.0,29.70,North,5,8.0,15.0,94,0.00,,,0.01,,2013-02-24 12:55:00,
2013-02-24 08:15:00,37.0,35.0,29.69,North,11,10.0,18.0,94,0.00,,,0.01,,2013-02-24 13:15:00,
2013-02-24 08:26:00,37.0,35.0,29.69,North,11,10.0,18.0,94,0.00,,,0.01,,2013-02-24 13:26:00,
2013-02-24 08:34:00,35.0,33.0,29.67,North,5,7.0,15.0,94,0.00,,,0.01,,2013-02-24 13:34:00,
2013-02-24 08:44:00,35.0,33.0,29.67,North,5,7.0,15.0,94,0.00,,,0.01,,2013-02-24 13:44:00,
2013-02-24 08:55:00,35.0,33.0,29.67,NNW,331,6.0,15.0,94,0.00,,,0.01,,2013-02-24 13:55:00,
2013-02-24 09:05:00,35.0,33.0,29.66,North,360,5.0,13.0,94,0.00,,,0.01,,2013-02-24 14:05:00,
2013-02-24 09:14:00,34.0,32.0,29.66,North,10,3.0,12.0,94,0.00,,,0.01,,2013-02-24 14:14:00,
2013-02-24 09:25:00,34.0,32.0,29.66,North,10,3.0,12.0,94,0.00,,,0.01,,2013-02-24 14:25:00,
2013-02-24 09:34:00,34.0,32.0,29.66,NNE,32,7.0,14.0,94,0.00,,,0.01,,2013-02-24 14:34:00,
2013-02-24 09:44:00,34.0,32.0,29.66,NNE,32,7.0,14.0,94,0.00,,,0.01,,2013-02-24 14:44:00,
2013-02-24 09:53:00,35.0,33.0,29.66,North,355,7.0,14.0,94,0.00,,,0.01,,2013-02-24 14:53:00,
2013-02-24 10:04:00,36.0,34.0,29.64,NNE,24,4.0,16.0,94,0.00,,,0.01,,2013-02-24 15:04:00,
2013-02-24 10:13:00,36.0,34.0,29.64,North,5,7.0,15.0,94,0.00,,,0.01,,2013-02-24 15:13:00,
2013-02-24 10:23:00,36.0,34.0,29.64,North,5,7.0,15.0,94,0.00,,,0.01,,2013-02-24 15:23:00,
2013-02-24 10:32:00,36.0,34.0,29.63,NNW,348,6.0,17.0,94,0.00,,,0.01,,2013-02-24 15:32:00,
2013-02-24 10:42:00,36.0,34.0,29.63,NNW,348,6.0,17.0,94,0.00,,,0.01,,2013-02-24 15:42:00,
2013-02-24 10:52:00,36.0,34.0,29.63,NNW,329,7.0,18.0,94,0.00,,,0.01,,2013-02-24 15:52:00,
2013-02-24 11:01:00,36.0,34.0,29.64,North,355,7.0,17.0,94,0.00,,,0.01,,2013-02-24 16:01:00,
2013-02-24 11:11:00,36.0,34.0,29.64,NNW,333,6.0,20.0,94,0.00,,,0.01,,2013-02-24 16:11:00,
2013-02-24 11:21:00,36.0,34.0,29.64,NNW,333,6.0,20.0,94,0.00,,,0.01,,2013-02-24 16:21:00,
2013-02-24 11:32:00,35.0,33.0,29.64,North,5,6.0,18.0,94,0.00,,,0.01,,2013-02-24 16:32:00,
2013-02-24 11:42:00,35.0,33.0,29.64,North,5,6.0,18.0,94,0.00,,,0.01,,2013-02-24 16:42:00,
2013-02-24 11:52:00,34.0,32.0,29.64,NNE,13,6.0,16.0,94,0.00,,,0.01,,2013-02-24 16:52:00,
2013-02-24 12:01:00,34.0,32.0,29.65,North,355,9.0,17.0,94,0.00,,,0.01,,2013-02-24 17:01:00,
2013-02-24 12:11:00,34.0,32.0,29.65,North,355,9.0,17.0,94,0.00,,,0.01,,2013-02-24 17:11:00,
2013-02-24 12:21:00,33.0,31.0,29.64,NE,39,9.0,18.0,94,0.00,,,0.01,,2013-02-24 17:21:00,
2013-02-24 12:32:00,33.0,31.0,29.64,NNW,327,7.0,15.0,94,0.00,,,0.01,,2013-02-24 17:32:00,
2013-02-24 12:42:00,33.0,31.0,29.64,NNW,327,7.0,15.0,94,0.00,,,0.01,,2013-02-24 17:42:00,
2013-02-24 12:52:00,33.0,31.0,29.63,North,5,9.0,19.0,94,0.00,,,0.01,,2013-02-24 17:52:00,
2013-02-24 13:02:00,33.0,31.0,29.62,North,355,5.0,16.0,94,0.00,,,0.01,,2013-02-24 18:02:00,
2013-02-24 13:11:00,33.0,31.0,29.62,North,355,5.0,16.0,94,0.00,,,0.01,,2013-02-24 18:11:00,
2013-02-24 13:22:00,33.0,31.0,29.62,NE,39,7.0,16.0,94,0.00,,,0.01,,2013-02-24 18:22:00,
2013-02-24 13:32:00,33.0,31.0,29.62,North,360,8.0,18.0,94,0.00,,,0.01,,2013-02-24 18:32:00,
2013-02-24 13:42:00,33.0,31.0,29.62,North,360,8.0,18.0,94,0.00,,,0.01,,2013-02-24 18:42:00,
2013-02-24 13:52:00,33.0,31.0,29.62,North,5,9.0,21.0,94,0.00,,,0.01,,2013-02-24 18:52:00,
2013-02-24 14:01:00,34.0,32.0,29.62,NNE,17,9.0,21.0,94,0.00,,,0.01,,2013-02-24 19:01:00,
2013-02-24 14:11:00,34.0,32.0,29.62,NNE,17,9.0,21.0,94,0.00,,,0.01,,2013-02-24 19:11:00,
2013-02-24 14:22:00,34.0,32.0,29.62,NNE,21,17.0,26.0,94,0.00,,,0.01,,2013-02-24 19:22:00,
2013-02-24 14:32:00,34.0,32.0,29.62,NE,42,7.0,20.0,94,0.00,,,0.01,,2013-02-24 19:32:00,
2013-02-24 14:42:00,34.0,32.0,29.62,NE,42,7.0,20.0,94,0.00,,,0.01,,2013-02-24 19:42:00,
2013-02-24 14:52:00,34.0,32.0,29.63,NNW,336,9.0,14.0,94,0.00,,,0.01,,2013-02-24 19:52:00,
2013-02-24 15:02:00,34.0,32.0,29.64,NE,35,6.0,18.0,94,0.00,,,0.01,,2013-02-24 20:02:00,
2013-02-24 15:11:00,34.0,32.0,29.64,NE,35,6.0,18.0,94,0.00,,,0.01,,2013-02-24 20:11:00,
2013-02-24 15:21:00,34.0,32.0,29.65,NNW,348,6.0,13.0,94,0.00,,,0.01,,2013-02-24 20:21:00,
2013-02-24 15:32:00,33.0,31.0,29.65,WNW,301,4.0,13.0,94,0.00,,,0.01,,2013-02-24 20:32:00,
2013-02-24 15:42:00,33.0,31.0,29.65,WNW,301,4.0,13.0,94,0.00,,,0.01,,2013-02-24 20:42:00,
2013-02-24 15:52:00,33.0,31.0,29.66,NNW,342,5.0,15.0,94,0.00,,,0.01,,2013-02-24 20:52:00,
2013-02-24 16:02:00,33.0,31.0,29.66,NW,310,6.0,14.0,94,0.00,,,0.01,,2013-02-24 21:02:00,
2013-02-24 16:11:00,33.0,31.0,29.66,NW,310,6.0,14.0,94,0.00,,,0.01,,2013-02-24 21:11:00,
2013-02-24 16:21:00,33.0,31.0,29.66,NNW,338,3.0,11.0,94,0.00,,,0.01,,2013-02-24 21:21:00,
2013-02-24 16:32:00,33.0,31.0,29.67,North,350,2.0,14.0,93,0.00,,,0.01,,2013-02-24 21:32:00,
2013-02-24 16:42:00,33.0,31.0,29.67,North,350,2.0,14.0,93,0.00,,,0.01,,2013-02-24 21:42:00,
2013-02-24 16:52:00,33.0,31.0,29.67,NNW,340,6.0,17.0,93,0.00,,,0.01,,2013-02-24 21:52:00,
2013-02-24 17:01:00,32.0,30.0,29.67,North,355,4.0,13.0,94,0.00,,,0.01,,2013-02-24 22:01:00,
2013-02-24 17:11:00,32.0,30.0,29.67,North,355,4.0,13.0,94,0.00,,,0.01,,2013-02-24 22:11:00,
2013-02-24 17:21:00,32.0,30.0,29.68,NNW,338,7.0,14.0,93,0.00,,,0.01,,2013-02-24 22:21:00,
2013-02-24 17:32:00,32.0,30.0,29.69,North,5,8.0,13.0,93,0.00,,,0.01,,2013-02-24 22:32:00,
2013-02-24 17:42:00,32.0,30.0,29.69,North,5,8.0,13.0,93,0.00,,,0.01,,2013-02-24 22:42:00,
2013-02-24 17:52:00,32.0,30.0,29.69,North,360,9.0,14.0,93,0.00,,,0.01,,2013-02-24 22:52:00,
2013-02-24 18:02:00,32.0,30.0,29.69,North,351,7.0,17.0,94,0.00,,,0.01,,2013-02-24 23:02:00,
2013-02-24 18:11:00,32.0,30.0,29.69,North,351,7.0,17.0,94,0.00,,,0.01,,2013-02-24 23:11:00,
2013-02-24 18:21:00,32.0,30.0,29.69,North,351,7.0,17.0,94,0.00,,,0.01,,2013-02-24 23:21:00,
2013-02-24 18:32:00,32.0,30.0,29.72,NNE,18,7.0,15.0,94,0.00,,,0.01,,2013-02-24 23:32:00,
2013-02-24 18:42:00,32.0,30.0,29.72,NNE,18,7.0,15.0,94,0.00,,,0.01,,2013-02-24 23:42:00,
2013-02-24 18:52:00,32.0,30.0,29.72,NNE,20,6.0,15.0,94,0.00,,,0.01,,2013-02-24 23:52:00,
2013-02-24 19:01:00,32.0,30.0,29.72,NNE,17,6.0,14.0,94,0.00,,,0.01,,2013-02-25 00:01:00,
2013-02-24 19:11:00,32.0,30.0,29.72,NNE,17,6.0,14.0,94,0.00,,,0.01,,2013-02-25 00:11:00,
2013-02-24 19:21:00,32.0,30.0,29.74,NNW,343,7.0,15.0,93,0.00,,,0.01,,2013-02-25 00:21:00,
2013-02-24 19:32:00,32.0,30.0,29.75,North,360,5.0,14.0,93,0.00,,,0.01,,2013-02-25 00:32:00,
2013-02-24 19:42:00,32.0,30.0,29.75,North,360,5.0,14.0,93,0.00,,,0.01,,2013-02-25 00:42:00,
2013-02-24 19:52:00,32.0,30.0,29.75,North,5,6.0,16.0,93,0.00,,,0.01,,2013-02-25 00:52:00,
2013-02-24 20:01:00,31.0,29.0,29.76,NNE,15,3.0,13.0,94,0.00,,,0.01,,2013-02-25 01:01:00,
2013-02-24 20:11:00,31.0,29.0,29.76,NNE,21,7.0,17.0,94,0.00,,,0.01,,2013-02-25 01:11:00,
2013-02-24 20:21:00,31.0,29.0,29.76,NNE,21,7.0,17.0,94,0.00,,,0.01,,2013-02-25 01:21:00,
2013-02-24 20:32:00,31.0,29.0,29.77,WNW,294,3.0,14.0,93,0.00,,,0.01,,2013-02-25 01:32:00,
2013-02-24 20:42:00,31.0,29.0,29.77,WNW,294,3.0,14.0,93,0.00,,,0.01,,2013-02-25 01:42:00,
2013-02-24 20:52:00,31.0,29.0,29.78,NNW,341,3.0,12.0,93,0.00,,,0.01,,2013-02-25 01:52:00,
2013-02-24 21:01:00,31.0,29.0,29.78,NNW,348,4.0,13.0,93,0.00,,,0.01,,2013-02-25 02:01:00,
2013-02-24 21:11:00,31.0,29.0,29.79,NW,320,4.0,15.0,93,0.00,,,0.01,,2013-02-25 02:11:00,
2013-02-24 21:21:00,31.0,29.0,29.79,NW,320,4.0,15.0,93,0.00,,,0.01,,2013-02-25 02:21:00,
2013-02-24 21:32:00,31.0,29.0,29.79,NNW,329,9.0,14.0,93,0.00,,,0.01,,2013-02-25 02:32:00,
2013-02-24 21:42:00,31.0,29.0,29.79,NNW,329,9.0,14.0,93,0.00,,,0.01,,2013-02-25 02:42:00,
2013-02-24 21:52:00,31.0,29.0,29.80,NW,304,5.0,12.0,93,0.00,,,0.00,,2013-02-25 02:52:00,
2013-02-24 22:02:00,31.0,29.0,29.80,North,349,7.0,11.0,93,0.00,,,0.00,,2013-02-25 03:02:00,
2013-02-24 22:11:00,31.0,29.0,29.80,North,349,7.0,11.0,93,0.00,,,0.00,,2013-02-25 03:11:00,
2013-02-24 22:21:00,31.0,29.0,29.81,NW,326,5.0,10.0,93,0.00,,,0.00,,2013-02-25 03:21:00,
2013-02-24 22:32:00,31.0,29.0,29.81,NNE,17,6.0,11.0,93,0.00,,,0.00,,2013-02-25 03:32:00,
2013-02-24 22:42:00,31.0,29.0,29.81,NNE,17,6.0,11.0,93,0.00,,,0.00,,2013-02-25 03:42:00,
2013-02-24 22:51:00,31.0,29.0,29.81,North,351,4.0,8.0,93,0.00,,,0.00,,2013-02-25 03:51:00,
2013-02-24 23:02:00,31.0,29.0,29.82,North,5,5.0,11.0,94,0.00,,,0.00,,2013-02-25 04:02:00,
2013-02-24 23:11:00,31.0,29.0,29.82,North,5,5.0,11.0,94,0.00,,,0.00,,2013-02-25 04:11:00,
2013-02-24 23:21:00,31.0,29.0,29.82,NNW,346,6.0,10.0,94,0.00,,,0.00,,2013-02-25 04:21:00,
2013-02-24 23:32:00,31.0,29.0,29.82,NNW,344,1.0,9.0,93,0.00,,,0.00,,2013-02-25 04:32:00,
2013-02-24 23:42:00,31.0,29.0,29.82,NNW,344,1.0,9.0,93,0.00,,,0.00,,2013-02-25 04:42:00,
2013-02-24 23:52:00,30.0,28.0,29.82,NNW,339,4.0,7.0,93,0.00,,,0.00,,2013-02-25 04:52:00,